GW4148 Weather Reports


time (UTC)temp
F
wind
direction
speed
knots
gust
knots
rain 1hr
in
rain 24hr
in
rain mn
in
humidity
%
barometer
mb
20260504081524 65 68 0.0 0.9 0.00 1.26 0.00 92 1018.3
20260504050025 66 108 2.6 6.1 0.08 1.25 1.25 90 1021.1
20260504044520 67 120 0.9 7.8 0.08 1.24 1.24 90 1021.4
20260504043003 67 84 0.9 7.8 0.10 1.23 1.23 90 1021.4
20260504041515 66 27 0.9 7.0 0.12 1.21 1.21 91 1021.6
20260504040014 66 30 4.3 7.8 0.12 1.16 1.16 91 1021.7
20260504034519 66 342 3.5 8.7 0.16 1.16 1.16 92 1021.7
20260504033023 66 18 0.0 0.9 0.16 1.13 1.13 93 1021.6
20260504031507 66 249 0.0 0.9 0.16 1.09 1.09 92 1021.5
20260504030011 66 122 0.0 0.0 0.18 1.04 1.04 92 1021.5
20260504024515 66 155 0.0 3.5 0.18 1.00 1.00 92 1021.4
20260504023020 66 301 0.0 1.7 0.18 0.97 0.97 92 1021.4
20260504021522 66 6 0.0 1.7 0.17 0.93 0.93 92 1021.1
20260504020010 67 22 0.0 0.9 0.15 0.87 0.87 92 1020.9
20260504014519 66 338 1.7 5.2 0.15 0.82 0.82 91 1020.8
20260504013016 67 71 0.9 4.3 0.18 0.79 0.79 91 1020.7
20260504011522 67 75 1.7 7.8 0.20 0.77 0.76 91 1020.5
20260504010024 67 89 0.9 4.3 0.20 0.73 0.72 92 1020.4
20260504004518 67 62 0.0 2.6 0.18 0.68 0.67 92 1020.2
20260504003016 67 75 1.7 4.3 0.15 0.62 0.61 92 1019.9
20260504001517 67 14 0.9 5.2 0.17 0.58 0.56 92 1019.9
20260504000023 67 30 1.7 9.6 0.26 0.56 0.52 91 1019.8
20260503234526 67 321 3.5 5.2 0.32 0.54 0.49 92 1019.5
20260503233035 67 105 0.0 0.0 0.42 0.52 0.46 92 1019.2
20260503231513 68 105 0.9 2.6 0.38 0.45 0.39 92 1019.0
20260503230021 68 83 0.9 2.6 0.25 0.32 0.26 91 1018.9
20260503224524 68 32 0.0 4.3 0.16 0.23 0.17 89 1018.6
20260503223030 69 160 0.9 3.5 0.03 0.11 0.04 86 1018.4
20260503221534 70 237 1.7 5.2 0.00 0.08 0.01 85 1018.1
20260503220020 70 27 1.7 7.8 0.00 0.08 0.01 85 1018.2
20260503214521 71 1 4.3 8.7 0.00 0.08 0.01 83 1018.4
20260503213025 71 336 5.2 8.7 0.00 0.08 0.01 82 1018.4
20260503211528 71 356 6.1 11.3 0.00 0.08 0.01 83 1018.4
20260503210026 72 16 7.0 14.8 0.00 0.08 0.01 82 1018.3
20260503204523 72 4 7.0 11.3 0.00 0.08 0.01 81 1018.3
20260503203022 74 9 7.8 14.8 0.00 0.09 0.01 79 1018.3
20260503201528 75 64 7.0 12.2 0.00 0.09 0.01 77 1017.9
20260503200029 76 86 7.8 13.9 0.00 0.09 0.01 75 1017.9
20260503194527 76 18 6.1 12.2 0.01 0.09 0.01 75 1018.1
20260503193022 77 37 3.5 11.3 0.01 0.13 0.01 73 1018.5
20260503191529 76 23 3.5 7.8 0.01 0.18 0.01 74 1018.6
20260503184528 76 70 3.5 11.3 0.00 0.48 0.00 74 1019.2
20260503183028 77 34 2.6 10.4 0.00 0.48 0.00 72 1019.4
20260503181531 77 34 5.2 10.4 0.00 0.48 0.00 69 1019.6
20260503180025 79 342 6.1 10.4 0.00 0.48 0.00 64 1019.9
20260503174508 80 65 6.1 13.9 0.00 0.48 0.00 65 1020.2
20260503173016 79 311 3.5 11.3 0.00 0.48 0.00 68 1020.5
20260503171520 78 37 5.2 9.6 0.00 0.48 0.00 68 1020.7